Regional Weather Roundup
Issued by NWS

Home | Current Version | Previous Version | Text Only | Print | Product List | Glossary On
Versions: 1 2 3 4 5 6 7 8 9 10 11 12 13 14 15 16 17 18 19 20 21 22 23 24 25 26 27 28 29 30 31 32 33 34 35 36 37 38 39 40 41 42 43 44 45 46 47 48 49 50
890
ASUS43 KMKX 231111
RWRWI

WISCONSIN REGIONAL WEATHER ROUNDUP
NATIONAL WEATHER SERVICE MILWAUKEE/SULLIVAN WI
600 AM CDT SAT JUL 23 2016

NOTE: "FAIR" INDICATES FEW OR NO CLOUDS BELOW 12,000 FEET WITH NO
SIGNIFICANT WEATHER AND/OR OBSTRUCTIONS TO VISIBILITY.

WIZ001-002-006>008-014>016-023>028-231200-
NORTHWEST WISCONSIN

CITY           SKY/WX    TMP DP  RH WIND       PRES   REMARKS
SUPERIOR ARPT    N/A     59  59 100 CALM      29.99S FOG
ASHLAND        MOCLDY    60  58  92 CALM      30.00F
HAYWARD        MOCLDY    65  61  87 N5        30.02S
SIREN          PTCLDY    66  64  94 CALM      29.99F
CUMBERLAND     CLEAR     63  61  94 S6        30.01S
RICE LAKE      CLEAR     65  64  96 CALM      30.02S
CHETEK         CLEAR     69  69 100 MISG      30.00F
LADYSMITH      CLOUDY    66  65  95 CALM      30.03S
EAU CLAIRE     FOG       65  65 100 NE5       29.98S VSB 1/4
MENOMONIE      CLOUDY    66  65  96 CALM      29.99F
NEW RICHMOND   CLOUDY    64  64  98 CALM      29.98F
OSCEOLA        CLOUDY    65  65 100 CALM      30.00F
$$

WIZ003>005-009-010-017-018-231200-
NORTH CENTRAL WISCONSIN

CITY           SKY/WX    TMP DP  RH WIND       PRES   REMARKS
MANITOWISH WTR CLOUDY    60  60 100 CALM      30.04S FOG
ARBOR VITAE    CLOUDY    62  60  94 CALM      30.04S
WOODRUFF       CLOUDY    62  60  94 CALM      30.04S
RHINELANDER    FOG       62  61  96 CALM      30.05S VSB 1/2
EAGLE RIVER    CLOUDY    57  57 100 CALM      30.04S FOG
LAND O LAKES   PTCLDY    54  54 100 CALM      30.06R
PHILLIPS       CLEAR     62  62 100 CALM      30.03S
TOMAHAWK       PTCLDY    58  57  96 CALM      30.04S
MEDFORD        PTCLDY    64  64 100 CALM      30.02S
MERRILL        PTCLDY    61  61 100 CALM      30.03F
$$

WIZ029-030-035-036-043>047-231200-
CENTRAL WISCONSIN

CITY           SKY/WX    TMP DP  RH WIND       PRES   REMARKS
WAUSAU         PTCLDY    65  64  97 CALM      30.00F
MOSINEE        CLEAR     64  64 100 CALM      30.02F
MARSHFIELD     PTCLDY    69  64  84 CALM      30.01R
STEVENS POINT  PTCLDY    61  61 100 CALM      30.01S
WAUPACA        CLEAR     67  67  99 CALM      29.99F
WAUTOMA        CLEAR     65  64  97 CALM      30.00R
WISC RAPIDS    PTCLDY    64  62  93 CALM      30.02R
CAMP DOUGLAS   FOG       61  61 100 CALM      29.99S VSB 1/2
$$

WIZ011>013-019>022-031-037>040-048>050-231200-
NORTHEAST WISCONSIN

CITY           SKY/WX    TMP DP  RH WIND       PRES   REMARKS
ANTIGO         CLEAR     61  61  99 CALM      30.04F
SHAWANO        FOG       66  64  95 CALM      29.99F VSB 1
OCONTO         CLEAR    N/A N/A N/A CALM      29.99R
STURGEON BAY   CLEAR     69  66  90 CALM      30.00R
GREEN BAY      PTCLDY    66  66 100 CALM      29.99R
MANITOWOC      MOCLDY    68  66  93 MISG      29.99R
APPLETON       PTCLDY    68  66  94 N7        29.99R
CLINTONVILLE   PTCLDY    63  63 100 CALM      29.99F
OSHKOSH        CLEAR     70  66  87 W5        29.98S
$$

WIZ032>034-041-042-053>061-231200-
SOUTHWEST WISCONSIN

CITY           SKY/WX    TMP DP  RH WIND       PRES   REMARKS
LA CROSSE      CLOUDY    76  74  93 E3        29.96S
SPARTA         CLEAR     62  62  99 CALM      29.99S
VIROQUA        CLOUDY    74  74 100 S6        30.01S VSB 1/4
BOSCOBEL       FOG       77  76  96 CALM      29.98S VSB<1/4
PRAIRIE DU CHI CLOUDY    75  73  93 E3        29.96F
PLATTEVILLE    MOCLDY    76  76 100 SE5       30.00F
$$

WIZ056-057-062-063-064-067-068-231200-
SOUTH CENTRAL WISCONSIN

CITY           SKY/WX    TMP DP  RH WIND       PRES   REMARKS
REEDSBURG      FOG       72  72 100 CALM      29.99S VSB<1/4
BARABOO/DELLS  FOG       72  70  95 CALM      30.00R VSB<1/4
LONE ROCK      FOG       75  74  96 CALM      29.99S VSB 3/4
MINERAL POINT  FOG       75  75 100 E3        30.01F VSB 1/2
MADISON        FOG       72  72 100 CALM      30.00R VSB 1/2
MIDDLETON      CLOUDY    73  73 100 CALM      30.00F VSB 1/4
WATERTOWN      FOG       72  72 100 CALM      30.00S VSB<1/4
MONROE         PTCLDY    77  73  88 CALM      30.01R
JANESVILLE     MOCLDY    77  73  88 CALM      29.99S FOG
$$

WIZ051-052-058>065-066-070>072-231200-
SOUTHEAST WISCONSIN

CITY           SKY/WX    TMP DP  RH WIND       PRES   REMARKS
MILWAUKEE      PTCLDY    77  73  87 CALM      29.99R
WAUKESHA       FOG       70  70 100 CALM      30.01R VSB 1/4
MILWAUKEE/TIMM CLEAR     73  70  88 CALM      30.00R
RACINE         CLEAR     76  74  93 NW6       30.01R FOG
BURLINGTON     CLEAR     72  72  99 CALM      30.00R FOG
KENOSHA        MOCLDY    76  75  97 CALM      30.00R FOG
FOND DU LAC    FOG       71  69  93 CALM      30.00R VSB<1/4
SHEBOYGAN      CLEAR     68  67  96 CALM      29.99R FOG
WEST BEND      PTCLDY    68  68 100 CALM      30.00S
JUNEAU         FOG       72  72 100 CALM      30.01S VSB<1/4
$$

LSZ147-162-231200-
LAKE SUPERIOR

STATION/POSITION TIME  TEMP    WIND        PRES    WAVE
                       AIR SEA DIR/SP/G            HT/PER
                 (UTC) (F)     (DEG/KT/KT) (MB)    (FT/S)
W MID LAKE BUOY  1050   63 57  330/  4/  6 1014.9R   0
DEVILS ISLAND    1000   69     240/  6/  6 1015.6R
SAXON HARBOR     1000   64     200/  5/  8 1015.6S
$$

LMZ867-665-643>646-231200-
LAKE MICHIGAN

STATION/POSITION TIME  TEMP    WIND        PRES    WAVE
                       AIR SEA DIR/SP/G            HT/PER
                 (UTC) (F)     (DEG/KT/KT) (MB)    (FT/S)
CHAMBERS ISLAND  1000   66     220/  2/  3 1014.9R
S GREEN BAY BUOY 1000   73 74   CALM  /  2   N/A
N MID LAKE BUOY  1050   69 68  250/  4/  4 1014.0R   1
NORTHPORT PIER   1000   72     290/  5/  7 1014.6S
KEWAUNEE LAKESHO 1000   70     360/  3/  5 1014.4R
SHEBOYGAN LAKESH 1100   70     230/  3/  3 1015.5R
PORT WASHINGTON  1000   76     290/  4/  7 1015.2F
MILWAUKEE LAKESH 1010   72      CALM  /  1   N/A
S MID LAKE BUOY  1050   75 73  140/  2/  2 1014.5R   0
KENOSHA   LAKESH 1100   77     300/  2/  5 1015.2R
$$

TC  - TEMPERATURE IN CELSIUS
VSB - VISIBILITY IN STATUTE MILES
WCI - WIND CHILL INDEX
HX  - HEAT INDEX





USA.gov is the U.S. government's official web portal to all federal, state and local government web resources and services.